Address 0x69e056ec6eddb0d682a1b98005029992791001c0 17

 
Txn Hash Method
Block
From
To
Value [Txn Fee]
0x60bbeb5e1c46bb04809e03bbd689192a32c929b855bbd474ceeeb778027e64adTransfer1659964642024-01-01 14:26:09111 days 15 hrs ago0x69e056ec6eddb0d682a1b98005029992791001c0OUT Arbitrum: USDC Token0 ETH0.00003532 0.1
0x69b5b8f6c47d4f6d68674d909b19277b3ab748ceabf3f4a762d808eed58db4f8Process Route1659962872024-01-01 14:25:29111 days 15 hrs ago0x69e056ec6eddb0d682a1b98005029992791001c0OUT SushiSwap: Route Processor v3.20 ETH0.00008543 0.1
0x3375e442a6770163e400b424fbe193fbe4a801aaf4485c38c6bb5cf5bef9e1abApprove1659961722024-01-01 14:25:00111 days 15 hrs ago0x69e056ec6eddb0d682a1b98005029992791001c0OUT Tether: USDT Token0 ETH0.00003614 0.1
0x99bd81b60e90bba66b09277b84af9b32d6aae6b75e3f4f1341211b87bf55a488Approve1659953252024-01-01 14:21:28111 days 15 hrs ago0x69e056ec6eddb0d682a1b98005029992791001c0OUT Tether: USDT Token0 ETH0.00003682 0.1
0x1043536b9ec2273d9039a038d91c1edacd688e6d46e3d53d9d301dd0644e089cTransfer951919692023-05-28 3:48:24330 days 2 hrs ago0x69e056ec6eddb0d682a1b98005029992791001c0OUT0xd2e83bb335798f674daf0e039770a1c4b4f1b3a60.235 ETH0.00002759 0.1
0x0a1132bf74222ec52164c142a7d53e090c897043828b2a06dae9d1770c002423Delegate951912112023-05-28 3:45:14330 days 2 hrs ago0x69e056ec6eddb0d682a1b98005029992791001c0OUT Arbitrum Foundation: ARB Token0 ETH0.00003691 0.1
0x97c923f455739e469d4c2ab63a10640cd44bf9335f93bee9457423a76f799a26Transfer951907962023-05-28 3:43:30330 days 2 hrs agoOrbiter Finance: Bridge 3 IN 0x69e056ec6eddb0d682a1b98005029992791001c00.09244 ETH0.000029150.1
0x7da6026cd496b4321a02aca5254c2c6f9ca09707cf31207f4f8626b86d67c15fSwap Exact Token...904949592023-05-14 4:34:14344 days 1 hr ago0x69e056ec6eddb0d682a1b98005029992791001c0OUT Camelot: Router0 ETH0.0001969 0.1
0x30597f43de860526e102cbe2f30e968f55e7a795b093a250ac94cd44958a44bcApprove904946352023-05-14 4:32:50344 days 1 hr ago0x69e056ec6eddb0d682a1b98005029992791001c0OUT ArbSHIB: AISHIB Token0 ETH0.00007138 0.1
0x4b3311c7c91e85900c838b07b154bacc6e2a7ea0b2a49bb469351245992dac6eSwap Exact Token...904941652023-05-14 4:30:49344 days 1 hr ago0x69e056ec6eddb0d682a1b98005029992791001c0OUT Camelot: Router0 ETH0.0001659 0.1
0xf9895346548edc0663d81a576068a91b1ef37c7c849fefb5e6f132de5d95f52dApprove904932462023-05-14 4:26:51344 days 1 hr ago0x69e056ec6eddb0d682a1b98005029992791001c0OUT ArbDoge AI: AIDOGE Token0 ETH0.00007027 0.1
0xa7d0afd23cf28f51a3d0731362354ee35b3678a8affb2296c9d4ff9949f7f9cfApprove904926162023-05-14 4:24:07344 days 1 hr ago0x69e056ec6eddb0d682a1b98005029992791001c0OUT ArbDoge AI: AIDOGE Token0 ETH0.00007027 0.1
0xcdb19d8f7e3835a4d1af05ba7b8a5514fadb5e0d69a62ce841b442e4e41641adApprove904919292023-05-14 4:21:13344 days 1 hr ago0x69e056ec6eddb0d682a1b98005029992791001c0OUT ArbSHIB: AISHIB Token0 ETH0.00007288 0.1
0x06d8f33e0d6e74fea4fba83f97424a0e87c17188f8e8e1a86c139b39c089206cClaim904900592023-05-14 4:13:11344 days 1 hr ago0x69e056ec6eddb0d682a1b98005029992791001c0OUT 0x7ab3e1d1f706b35b7ae82987c8862e8e3904529c0 ETH0.00015265 0.1
0x462b83be08e07a35f63cfd7e00cc7bdcb48354dae9344f173764bb595c919dbaClaim904897322023-05-14 4:11:47344 days 2 hrs ago0x69e056ec6eddb0d682a1b98005029992791001c0OUT 0x7c20acfd25467de0b92d03e4c4d304f18b8408e10 ETH0.00019105 0.1
0xacb94b1f6c95a2f018fc7ce1b090c9f7c86f30161745f7b7c92caee43d792d13Delegate844069392023-04-26 7:02:34361 days 23 hrs ago0x69e056ec6eddb0d682a1b98005029992791001c0OUT Arbitrum Foundation: ARB Token0 ETH0.00005949 0.1
0x418a5a80a035a5fb5424875267f265fe99b16fd1dba515fecd7e6ea1bf104428Uniswap V3Swap844067902023-04-26 7:01:57361 days 23 hrs ago0x69e056ec6eddb0d682a1b98005029992791001c0OUT 1inch v5: Aggregation Router0.00074 ETH0.00011064 0.1
0xb971a515b10a242892e2a655393fe970364592b0b5ca69144cd94822a014d049Approve835761202023-04-23 20:16:34364 days 9 hrs ago0x69e056ec6eddb0d682a1b98005029992791001c0OUT Arbitrum: USDC Token0 ETH0.00008215 0.1
0x172272214cd56c818efe0ad30e9bf58dd6e760ac01f3fb4f59aa6433b598c5f8Deposit Native835684112023-04-23 19:43:47364 days 10 hrs ago0x69e056ec6eddb0d682a1b98005029992791001c0OUT Rhino.fi: Bridge0.01 ETH0.00005404 0.1
0x8d985331fc6b7f8ae15da718a5ef4ddd3ddd855429cdfc73da5f3e63f8834641Claim814662752023-04-17 17:16:58370 days 12 hrs ago0x69e056ec6eddb0d682a1b98005029992791001c0OUT Galxe: NFT Space Station0 ETH0.00017964 0.1
0x920aa2e0e796039883e8adfd2b7064d200ced5a52c947e6666238145e873066eTransfer728430292023-03-23 13:59:45395 days 16 hrs ago0x69e056ec6eddb0d682a1b98005029992791001c0OUT Arbitrum Foundation: ARB Token0 ETH0.0002038 3.04537
0x86d445dddadef5a4d67881becdbda916bc611bfe93bc9470b11c42b2118aed07Claim728417572023-03-23 13:54:39395 days 16 hrs ago0x69e056ec6eddb0d682a1b98005029992791001c0OUT Arbitrum Foundation: Token Distributor0 ETH0.00029233 3.62151
0xdf0eeca4c39c3739ded9fbb20f513f455ecb66be65c63a8a959bcbda3e54d1a0Transfer727788202023-03-23 9:45:00395 days 20 hrs ago0x69e056ec6eddb0d682a1b98005029992791001c0OUT0x1dce22228c1ea59b79339eeb71c9d1fbe0454a570.0001 ETH0.00001916 0.1
0x08d9847832f804c9d6996d22e93e6ca2004944e6fdbc3b3073a3d7eb237cf039Bridge Deposit727759222023-03-23 9:33:17395 days 20 hrs ago0x7af156ec6eddb0d682a1b98005029992791012d1 IN 0x69e056ec6eddb0d682a1b98005029992791001c00.1 ETH00.1
0xd61c4e2f93358f1c8e89678caf9cf4561ea7be5ababdedfe35d5719a8f3958e9Disperse Ether335915552022-10-29 11:02:28540 days 19 hrs ago0x69e056ec6eddb0d682a1b98005029992791001c0OUT 0x692b5a7ecccad243a07535e8c24b0e7433238c6a0.15 ETH0.00054851 0.1
[ Download CSV Export 
Latest 19 internal transactions
Parent Txn Hash Block From To Value
0x7da6026cd496b4321a02aca5254c2c6f9ca09707cf31207f4f8626b86d67c15f904949592023-05-14 4:34:14344 days 1 hr ago Camelot: Router0x69e056ec6eddb0d682a1b98005029992791001c00.001586055482478919 ETH
0x4b3311c7c91e85900c838b07b154bacc6e2a7ea0b2a49bb469351245992dac6e904941652023-05-14 4:30:49344 days 1 hr ago Camelot: Router0x69e056ec6eddb0d682a1b98005029992791001c00.013184146168679342 ETH
0x4f0874b4b65ae788bf31b6e9a9427cb29e3307ab6000db8cf103b64d20136fb615472292021-09-24 6:06:00941 days 6 mins ago 0x69e056ec6eddb0d682a1b98005029992791001c0 0x176a9d89d235512ad5cb4b6a0879d704d8315ef80 ETH
0x1ba280d12afb3382f8dfe1105ead7cc55c6d430a7632abf49559b4ac0f6d473c15471212021-09-24 6:02:38941 days 9 mins ago Uniswap V3: Router0x69e056ec6eddb0d682a1b98005029992791001c00.348208121909388198 ETH
0x1ba280d12afb3382f8dfe1105ead7cc55c6d430a7632abf49559b4ac0f6d473c15471212021-09-24 6:02:38941 days 9 mins ago 0x69e056ec6eddb0d682a1b98005029992791001c0 Uniswap V3: Router0 ETH
0x1ba280d12afb3382f8dfe1105ead7cc55c6d430a7632abf49559b4ac0f6d473c15471212021-09-24 6:02:38941 days 9 mins ago 0x69e056ec6eddb0d682a1b98005029992791001c0 Uniswap V3: Router0 ETH
0xa550e01e7a68442741e01793b63c1804fcf98ce08123ac103207dd744c6e0e3a15471152021-09-24 6:02:38941 days 9 mins ago 0x69e056ec6eddb0d682a1b98005029992791001c0 0xb4d1650bb950a7551a1500903181b77118d818260 ETH
0xa2f513c8704b9ba81e26728ded59979a002aef50012eae8921462ee3049f3c4115470972021-09-24 6:02:38941 days 9 mins ago Uniswap V3: Positions NFT0x69e056ec6eddb0d682a1b98005029992791001c00.349652816732284247 ETH
0xa2f513c8704b9ba81e26728ded59979a002aef50012eae8921462ee3049f3c4115470972021-09-24 6:02:38941 days 9 mins ago 0x69e056ec6eddb0d682a1b98005029992791001c0 Uniswap V3: Positions NFT0 ETH
0xa2f513c8704b9ba81e26728ded59979a002aef50012eae8921462ee3049f3c4115470972021-09-24 6:02:38941 days 9 mins ago 0x69e056ec6eddb0d682a1b98005029992791001c0 Uniswap V3: Positions NFT0 ETH
0xa2f513c8704b9ba81e26728ded59979a002aef50012eae8921462ee3049f3c4115470972021-09-24 6:02:38941 days 9 mins ago 0x69e056ec6eddb0d682a1b98005029992791001c0 Uniswap V3: Positions NFT0 ETH
0xa2f513c8704b9ba81e26728ded59979a002aef50012eae8921462ee3049f3c4115470972021-09-24 6:02:38941 days 9 mins ago 0x69e056ec6eddb0d682a1b98005029992791001c0 Uniswap V3: Positions NFT0 ETH
0xd06b084018fbbdc6cd2836df90d372ee36a92b09eacfa1a81e0e1b0b476822a514955322021-09-23 6:00:33942 days 11 mins ago 0x69e056ec6eddb0d682a1b98005029992791001c0 Uniswap V3: Positions NFT0.349286079604355389 ETH
0xd06b084018fbbdc6cd2836df90d372ee36a92b09eacfa1a81e0e1b0b476822a514955322021-09-23 6:00:33942 days 11 mins ago 0x69e056ec6eddb0d682a1b98005029992791001c0 Uniswap V3: Positions NFT0.349286079604355389 ETH
0x237053230eed0e7bba629bc5e21fea9f3cb2396621e097c50effd517bbc89d2114955142021-09-23 6:00:33942 days 11 mins ago 0x69e056ec6eddb0d682a1b98005029992791001c0 0xb4d1650bb950a7551a1500903181b77118d818260 ETH
0x2d9aa33208c2ab8664c48fc81d06041d39387440bba599babc86c7489d08037814933112021-09-23 4:54:31942 days 1 hr ago Uniswap V3: Router0x69e056ec6eddb0d682a1b98005029992791001c00.747008412359934874 ETH
0x2d9aa33208c2ab8664c48fc81d06041d39387440bba599babc86c7489d08037814933112021-09-23 4:54:31942 days 1 hr ago 0x69e056ec6eddb0d682a1b98005029992791001c0 Uniswap V3: Router0 ETH
0x2d9aa33208c2ab8664c48fc81d06041d39387440bba599babc86c7489d08037814933112021-09-23 4:54:31942 days 1 hr ago 0x69e056ec6eddb0d682a1b98005029992791001c0 Uniswap V3: Router0 ETH
0x4e06ca20de40563c41878e84704dd9f36675ece997b2e98dffea6398029c8f0a14474122021-09-22 8:08:51942 days 22 hrs ago 0x69e056ec6eddb0d682a1b98005029992791001c0 0xf31e1ae27e7cd057c1d6795a5a083e0453d39b500 ETH
[ Download CSV Export 
Latest 1 Withdrawal
L2 Txn Hash Value Token Status L1 Withdrawal Txn
0x4f0874b4b65ae788bf31b6e9a9427cb29e3307ab6000db8cf103b64d20136fb62021-09-24 6:06:00941 days 6 mins ago2,141.8727 Tether USD (USDT)Relayed0x578d8f67af05689d03547614bd4320144f07391a8a59a8edc2bfa49fa113cea7
[ Download CSV Export 
Loading

Contract Name:
0 ETH

Compiler Version
0

Optimization Enabled:
0 ETH

Other Settings:
-NA-
Block Transaction Gas Used Reward
Age Block Fee Address BC Fee Address Voting Power Jailed Incoming
Block Uncle Number Difficulty Gas Used Reward
Loading
Make sure to use the "Vote Down" button for any spammy posts, and the "Vote Up" for interesting conversations.